• In Hungary
  • List of Countries
  • For 7 days
  • Water Temperature
  • Satellite Maps
  • Weather Map
  • News
  • Weather Widgets
  • user-avatar
    Login

    Hourly Weather Tyulebaevo

    Today, 27 May, Sunday

    Time Temperature Precipitation Wind Pressure Humidity
    00:00 +3°C° 0 mm 2 mps 744 mmHg 66%
    01:00 +2°C° 0 mm 2 mps 744 mmHg 69%
    02:00 +2°C° 0 mm 2 mps 744 mmHg 70%
    03:00 +1°C° 0 mm 2 mps 744 mmHg 71%
    04:00 +1°C° 0 mm 2 mps 744 mmHg 72%
    05:00 +3°C° 0 mm 2 mps 745 mmHg 67%
    06:00 +5°C° 0 mm 2 mps 745 mmHg 62%
    07:00 +7°C° 0 mm 3 mps 745 mmHg 57%
    08:00 +8°C° 0 mm 3 mps 745 mmHg 53%
    09:00 +10°C° 0 mm 4 mps 745 mmHg 49%
    10:00 +12°C° 0 mm 4 mps 745 mmHg 45%
    11:00 +13°C° 0 mm 5 mps 744 mmHg 45%
    12:00 +14°C° 0 mm 5 mps 744 mmHg 46%
    13:00 +15°C° 0 mm 5 mps 744 mmHg 46%
    14:00 +15°C° 0 mm 5 mps 743 mmHg 48%
    15:00 +16°C° 0 mm 5 mps 742 mmHg 49%
    16:00 +16°C° 0 mm 5 mps 742 mmHg 51%
    17:00 +15°C° 0 mm 5 mps 742 mmHg 55%
    18:00 +14°C° 0 mm 4 mps 741 mmHg 60%
    19:00 +14°C° 0 mm 4 mps 741 mmHg 65%
    20:00 +12°C° 0 mm 4 mps 740 mmHg 69%
    21:00 +11°C° 0 mm 4 mps 740 mmHg 72%
    22:00 +10°C° 0 mm 4 mps 740 mmHg 75%
    23:00 +8°C° 0 mm 4 mps 739 mmHg 76%

    Tomorrow, 28 May, Monday

    Time Temperature Precipitation Wind Pressure Humidity
    00:00 +8°C° 0 mm 5 mps 738 mmHg 76%
    01:00 +8°C° 0 mm 5 mps 738 mmHg 76%
    02:00 +8°C° 0.1 mm 5 mps 737 mmHg 77%
    03:00 +8°C° 0.1 mm 6 mps 736 mmHg 77%
    04:00 +8°C° 0.1 mm 6 mps 735 mmHg 77%
    05:00 +8°C° 0.4 mm 7 mps 735 mmHg 78%
    06:00 +8°C° 0.4 mm 7 mps 734 mmHg 79%
    07:00 +9°C° 0.4 mm 8 mps 733 mmHg 80%
    08:00 +8°C° 2 mm 7 mps 733 mmHg 84%
    09:00 +8°C° 2 mm 6 mps 733 mmHg 89%
    10:00 +8°C° 2 mm 6 mps 732 mmHg 94%
    11:00 +8°C° 0.4 mm 6 mps 733 mmHg 88%
    12:00 +9°C° 0.4 mm 6 mps 733 mmHg 83%
    13:00 +10°C° 0.4 mm 6 mps 733 mmHg 78%
    14:00 +10°C° 0.5 mm 6 mps 734 mmHg 77%
    15:00 +10°C° 0.5 mm 6 mps 734 mmHg 76%
    16:00 +10°C° 0.5 mm 7 mps 734 mmHg 75%
    17:00 +9°C° 0.2 mm 6 mps 734 mmHg 77%
    18:00 +8°C° 0.2 mm 6 mps 735 mmHg 79%
    19:00 +8°C° 0.2 mm 5 mps 735 mmHg 80%
    20:00 +6°C° 0 mm 4 mps 735 mmHg 83%
    21:00 +5°C° 0 mm 4 mps 736 mmHg 86%
    22:00 +4°C° 0 mm 3 mps 736 mmHg 89%
    23:00 +3°C° 0 mm 3 mps 736 mmHg 89%

    Day after tomorrow, 29 May, Tuesday

    Time Temperature Precipitation Wind Pressure Humidity
    00:00 +2°C° 0 mm 3 mps 737 mmHg 89%
    01:00 +2°C° 0 mm 3 mps 737 mmHg 88%
    02:00 +1°C° 0 mm 3 mps 737 mmHg 89%
    03:00 +1°C° 0 mm 3 mps 737 mmHg 90%
    04:00 0°C° 0 mm 3 mps 737 mmHg 90%
    05:00 +1°C° 0 mm 3 mps 738 mmHg 85%
    06:00 +3°C° 0 mm 4 mps 738 mmHg 80%
    07:00 +3°C° 0 mm 5 mps 738 mmHg 75%
    08:00 +5°C° 0 mm 5 mps 738 mmHg 68%
    09:00 +5°C° 0 mm 6 mps 738 mmHg 61%
    10:00 +7°C° 0 mm 6 mps 738 mmHg 54%
    11:00 +8°C° 0.1 mm 6 mps 738 mmHg 53%
    12:00 +8°C° 0.1 mm 6 mps 737 mmHg 52%
    13:00 +8°C° 0.1 mm 6 mps 737 mmHg 52%
    14:00 +9°C° 0 mm 6 mps 737 mmHg 52%
    15:00 +9°C° 0 mm 6 mps 737 mmHg 52%
    16:00 +9°C° 0 mm 6 mps 737 mmHg 52%
    17:00 +8°C° 0.1 mm 4 mps 737 mmHg 60%
    18:00 +9°C° 0.1 mm 3 mps 737 mmHg 67%
    19:00 +8°C° 0.1 mm 2 mps 737 mmHg 74%
    20:00 +7°C° 0.1 mm 2 mps 737 mmHg 79%
    21:00 +8°C° 0.1 mm 1 mps 737 mmHg 85%
    22:00 +7°C° 0.1 mm 1 mps 737 mmHg 90%
    23:00 +6°C° 0 mm 1 mps 736 mmHg 91%

    30 May, Wednesday

    Time Temperature Precipitation Wind Pressure Humidity
    00:00 +6°C° 0 mm 1 mps 736 mmHg 93%
    01:00 +6°C° 0 mm 1 mps 736 mmHg 94%
    02:00 +5°C° 0 mm 1 mps 736 mmHg 95%
    03:00 +5°C° 0 mm 1 mps 736 mmHg 96%
    04:00 +5°C° 0 mm 1 mps 736 mmHg 97%
    05:00 +6°C° 0 mm 1 mps 736 mmHg 94%
    06:00 +8°C° 0 mm 1 mps 736 mmHg 92%
    07:00 +8°C° 0 mm 2 mps 736 mmHg 89%
    08:00 +9°C° 0 mm 2 mps 735 mmHg 86%
    09:00 +11°C° 0 mm 3 mps 735 mmHg 82%
    10:00 +12°C° 0 mm 3 mps 735 mmHg 79%
    11:00 +12°C° 0.2 mm 4 mps 734 mmHg 80%
    12:00 +13°C° 0.2 mm 5 mps 734 mmHg 81%
    13:00 +14°C° 0.2 mm 6 mps 733 mmHg 82%
    14:00 +14°C° 0.7 mm 6 mps 733 mmHg 81%
    15:00 +15°C° 0.7 mm 6 mps 733 mmHg 80%
    16:00 +16°C° 0.7 mm 6 mps 732 mmHg 80%
    17:00 +16°C° 0.4 mm 5 mps 732 mmHg 80%
    18:00 +16°C° 0.4 mm 5 mps 732 mmHg 80%
    19:00 +15°C° 0.4 mm 4 mps 732 mmHg 81%
    20:00 +14°C° 0.1 mm 4 mps 731 mmHg 83%
    21:00 +13°C° 0.1 mm 4 mps 731 mmHg 85%
    22:00 +12°C° 0.1 mm 4 mps 731 mmHg 88%
    23:00 +12°C° 0.1 mm 4 mps 731 mmHg 88%

    31 May, Thursday

    Time Temperature Precipitation Wind Pressure Humidity
    00:00 +12°C° 0.1 mm 5 mps 731 mmHg 89%
    01:00 +12°C° 0.1 mm 5 mps 730 mmHg 90%
    02:00 +12°C° 0.1 mm 5 mps 730 mmHg 90%
    03:00 +11°C° 0.1 mm 6 mps 730 mmHg 91%
    04:00 +11°C° 0.1 mm 6 mps 729 mmHg 92%
    05:00 +11°C° 0.1 mm 6 mps 729 mmHg 90%
    06:00 +12°C° 0.1 mm 7 mps 729 mmHg 89%
    07:00 +13°C° 0.1 mm 8 mps 728 mmHg 88%
    08:00 +15°C° 0.1 mm 8 mps 728 mmHg 86%
    09:00 +15°C° 0.1 mm 8 mps 728 mmHg 85%
    10:00 +16°C° 0.1 mm 8 mps 728 mmHg 83%
    11:00 +16°C° 0.9 mm 8 mps 728 mmHg 85%
    12:00 +16°C° 0.9 mm 8 mps 728 mmHg 87%
    13:00 +16°C° 0.9 mm 8 mps 728 mmHg 88%
    14:00 +15°C° 1.9 mm 7 mps 728 mmHg 90%
    15:00 +15°C° 1.9 mm 6 mps 729 mmHg 91%
    16:00 +15°C° 1.9 mm 6 mps 729 mmHg 92%
    17:00 +14°C° 0.9 mm 5 mps 729 mmHg 91%
    18:00 +14°C° 0.9 mm 5 mps 730 mmHg 90%
    19:00 +14°C° 0.9 mm 4 mps 730 mmHg 88%
    20:00 +12°C° 0 mm 3 mps 731 mmHg 90%
    21:00 +10°C° 0 mm 3 mps 732 mmHg 91%
    22:00 +8°C° 0 mm 2 mps 732 mmHg 92%
    23:00 +8°C° 0 mm 2 mps 733 mmHg 92%

    1 June, Friday

    Time Temperature Precipitation Wind Pressure Humidity
    00:00 +8°C° 0 mm 1 mps 733 mmHg 92%
    01:00 +7°C° 0 mm 1 mps 734 mmHg 91%
    02:00 +7°C° 0 mm 1 mps 734 mmHg 92%
    03:00 +6°C° 0 mm 1 mps 734 mmHg 92%
    04:00 +6°C° 0 mm 1 mps 734 mmHg 92%
    05:00 +7°C° 0.2 mm 1 mps 734 mmHg 91%
    06:00 +7°C° 0.2 mm 1 mps 735 mmHg 91%
    07:00 +8°C° 0.2 mm 1 mps 735 mmHg 90%
    08:00 +7°C° 0 mm 2 mps 735 mmHg 88%
    09:00 +8°C° 0 mm 2 mps 735 mmHg 86%
    10:00 +9°C° 0 mm 3 mps 735 mmHg 84%
    11:00 +11°C° 0 mm 3 mps 735 mmHg 75%
    12:00 +14°C° 0 mm 3 mps 734 mmHg 67%
    13:00 +18°C° 0 mm 3 mps 734 mmHg 58%
    14:00 +19°C° 0 mm 3 mps 734 mmHg 59%
    15:00 +20°C° 0 mm 3 mps 733 mmHg 61%
    16:00 +21°C° 0 mm 4 mps 733 mmHg 62%
    17:00 +19°C° 0.2 mm 3 mps 733 mmHg 68%
    18:00 +18°C° 0.2 mm 3 mps 732 mmHg 74%
    19:00 +17°C° 0.2 mm 2 mps 732 mmHg 80%
    20:00 +16°C° 0 mm 2 mps 732 mmHg 82%
    21:00 +14°C° 0 mm 3 mps 732 mmHg 83%
    22:00 +13°C° 0 mm 3 mps 732 mmHg 85%
    23:00 +13°C° 0 mm 3 mps 731 mmHg 85%
    Show more